Regional Weather Roundup
Issued by NWS Kansas City/Pleasant Hill, MO

Home | Current Version | Previous Version | Text Only | Print | Product List | Glossary On
Versions: 1 2 3 4 5 6 7 8 9 10 11 12 13 14 15 16 17 18 19 20 21 22 23 24 25 26 27 28 29 30 31 32 33 34 35 36 37 38 39 40 41 42 43 44 45 46 47 48 49 50
000
ASUS43 KEAX 011011
RWREAX

WEATHER ROUNDUP FOR EASTERN KANSAS AND NORTHWEST MISSOURI
NATIONAL WEATHER SERVICE KANSAS CITY/PLEASANT HILL MO
400 AM CST SUN FEB 01 2015

KSZ040-057-103>105-MOZ028-029-037-043-011100-
...KANSAS CITY METROPOLITAN AREA...

CITY           SKY/WX    TMP DP  RH WIND       PRES   REMARKS
K.C. INTL      SNOW      32  32 100 S6        29.74F VSB 1/2 WCI  26
K.C. DOWNTOWN  FLURRIES  33  32  96 SE5       29.75F WCI  29
LEES SUMMIT    MIX PCPN  33  32  96 S6        29.74F FOG     WCI  28
OLATHE - IXD   LGT RAIN  36  35  96 SE7       29.74F FOG     WCI  30
OLATHE - OJC   LGT RAIN  35  34  96 S6        29.73F FOG     WCI  30
LAWRENCE       LGT RAIN  33  32  96 E7        29.73F FOG     WCI  27

$$

MOZ001>008-011>017-020>025-030>033-038>040-044>046-053-054-011100-
...NORTHERN AND CENTRAL MISSOURI...

CITY           SKY/WX    TMP DP  RH WIND       PRES   REMARKS
ST. JOSEPH     LGT SNOW  32  32 100 CALM      29.76F FOG
MOSBY          LGT SNOW  32  32 100 CALM      29.76F
WARRENSBURG    MIX PCPN  32  32 100 SE5       29.77F WCI  27
WHITEMAN AFB   LGT RAIN  32  32 100 SE6       29.76F WCI  26
CLINTON        DRIZZLE   37  37 100 SE5       29.78F WCI  34
SEDALIA        MIX PCPN  33  32  96 SE9       29.79F FOG     WCI  25
WARSAW         NOT AVBL
MARSHALL       LGT SNOW  36  34  93 SE10      29.81  VSB 3/4 WCI  28
CHILLICOTHE      N/A     33  32  96 S6        29.78F WCI  28
KIRKSVILLE     LGT SNOW  32  32 100 SE10      29.79F FOG     WCI  24

$$

MOZ041-047>049-056>058-063>065-088>090-097-011100-
...EASTERN AND SOUTHERN MISSOURI...

CITY           SKY/WX    TMP DP  RH WIND       PRES   REMARKS
ST. LOUIS INTL RAIN      36  32  85 E7        29.89F FOG     WCI  30
SPIRIT OF STL  LGT RAIN  34  33  96 E7        29.86F FOG     WCI  28
COLUMBIA       LGT SNOW  33  33 100 E9        29.81F FOG     WCI  25
JEFFERSON CITY LGT SNOW  34  32  92 E10       29.83F FOG     WCI  26
MEXICO         LGT SNOW N/A N/A N/A CALM      29.83
HANNIBAL       LGT SNOW  34  32  93 SE6       29.83F WCI  29
ROLLA          LGT RAIN  35  33  92 S3        29.81F FOG
LEBANON        MIX PCPN  37  36  93 S5        29.78F WCI  34
OSAGE BEACH    CLOUDY    36  34  93 E5        29.80F WCI  32
SPRINGFIELD    LGT RAIN  37  35  92 S7        29.76F FOG     WCI  32
BRANSON        LGT RAIN  41  41 100 CALM      29.77F
NEVADA         DRIZZLE   37  37 100 SE5       29.76F WCI  34
JOPLIN         LGT RAIN  40  39  97 S10       29.76F FOG     WCI  33
WEST PLAINS    RAIN      36  32  85 S9        29.82F FOG     WCI  29

$$

IAZ060-094-KSZ022-034>040-054-083-096-NEZ052-066-093-011100-
...KANSAS...SOUTHEAST NEBRASKA AND IOWA...

CITY           SKY/WX    TMP DP  RH WIND       PRES   REMARKS
TOPEKA         LGT RAIN  34  33  96 NE3       29.72F FOG
MANHATTAN      LGT RAIN  34  34 100 N7        29.73S FOG     WCI  28
EMPORIA        LGT RAIN  40  40 100 SW10      29.70F WCI  33
CHANUTE        LGT RAIN  41  40  96 S8        29.74F FOG
WICHITA        CLOUDY    42  41  96 W15G21    29.72F WCI  34
OMAHA          LGT SNOW  33  32  96 NE8       29.81F FOG     WCI  26
LINCOLN        LGT SNOW  32  31  96 N12       29.80F FOG     WCI  23
FALLS CITY     SNOW      32  31  96 NE3       29.74F VSB 1/2
LAMONI         LGT SNOW  32  31  96 E3        29.76F FOG
DES MOINES     LGT SNOW  33  31  92 E7        29.82F FOG     WCI  27

$$



USA.gov is the U.S. government's official web portal to all federal, state and local government web resources and services.